Find INTELSAT IVA F6

NORAD ID: 10778 Int'l Des: 1978-035 Owner: INTEL Country: I-INT operational
HEOCIRCULARGSO

Current View

Loading 3D Globe...

About INTELSAT IVA F6

Description loading...

Upcoming Passes

Passes for default location (London). Set your location on the main map for personalized predictions.

Altitude History

Loading altitude history...

Two-Line Element Set

1 10778U 78035A 26146.25347622 -.00000289 00000-0 00000-0 0 9996
2 10778 8.8147 311.8493 0007159 317.0610 207.7017 1.00264955121945
Epoch: May 26, 2026 • Age: 6 hours

Current Status

Altitude 35778.9 km
Velocity 3.08 km/s
Sub-Earth Point -8.16°S, 141.2°E
Launch Date Mar 31, 1978
Age 48.1 years
Type communications

Technical Details

Classification Payload
Mass 769.00 kg
Dry Mass 630.00 kg
Total Mass 1480.00 kg
Length 7.00 m
Diameter 2.40 m
Span 7.00 m
Shape Cyl + 2 Dish
Manufacturer HSES
Bus Type HS-353
Phase Status Renamed
Owner/State INTEL/I-INT

Most Searched